STARLINK-1124 (44953 NORAD) Tracking and Keplerian Element Data

This shows tracking and keplerian element data for the satellite.

Feedback or suggestion? Click here.




ElementValue
Catalog44953
NameSTARLINK-1124
Epoch Orbit786
Epoch Day48.58334491
Epoch Year2020
RAAN188.1699
Inclination52.9969
Eccentricity0.0001406
Argument of Perigee40.6287
Mean Anonmoly289.9213
Mean Motion15.73248504
Decay Rate-0.00026626
L11 44953U 20001AR 20048.58334491 -.00026626 00000-0 -18545-3 0 9999
L22 44953 52.9969 188.1699 0001406 40.6287 289.9213 15.73248504 7861

Live tracking and technical data element details for STARLINK-1124 (NORAD 44953). STARLINK-1124 can be tracked NOW for your location showing map with azimuth and elevation plus other details from your city location.

Track the satellite on the map from your city or location and see movement details for azimuth, elevation, latitude, longitude, range, height, and movement on the map or in text.







IsCatalogInMostPopularTable: catalog: 44953, numindb: 8
Update: records affected: 1



GetName: 44953 STARLINK-1124

Hit Count: updated at: Tue, 18 Feb 2020 00:37:30 GMT